カタログに戻る

STARLINK-36087

運用中通信VLEO
NORAD 66854·PAYLOAD·🇺🇸 United States

打ち上げ Dec 2, 2025 から Cape Canaveral Space Force Station

Loading…

次のパス (今後24時間)

TLE

最新Source: CelesTrak SupGP

元期: Sep 15, 2026, 03:37 UTC

1 66854C 25281G   26258.15118056  .00049526  00000+0  17939-2 0  2581
2 66854  43.0012 353.2554 0001437 265.1348 107.1463 15.27552398    12

AllMySatでSTARLINK-36087をリアルタイム追跡

Download on the App Store